Weather Roundup
Issued by NWS

Home | Current Version | Previous Version | Graphics & Text | Print | Product List | Glossary Off
Versions: 1 2 3 4 5 6 7 8 9 10 11 12 13 14 15 16 17 18 19 20 21 22 23 24 25 26 27 28 29 30 31 32 33 34 35 36 37 38 39 40 41 42 43 44 45 46 47 48 49 50

832
NZUS93 KARX 230510
HRRWXR

CURRENT HOURLY OBSERVATIONS ACROSS
MUCH OF THE UPPER MISSISSIPPI VALLEY
NATIONAL WEATHER SERVICE LA CROSSE WI
1200 AM CDT FRI JUN 23 2017


...SOUTHEAST MINNESOTA...


CITY           SKY/WX    TMP DP  RH WIND       PRES   REMARKS
ROCHESTER      CLOUDY    65  65 100 NW7       29.77S
ROCHESTER/MAYO CLOUDY    65  66 100 NW5       29.76S
WINONA         CLOUDY    68  68 100 CALM      29.73R
AUSTIN         CLOUDY    66  63  88 NW6       29.76R FOG
ALBERT LEA     CLOUDY    66  63  88 N5        29.78R
DODGE CENTER   CLOUDY    64  63  94 NW6       29.77R FOG
PRESTON        CLOUDY    65  63  94 NW5       29.75S
OWATONNA       CLOUDY    63  61  94 NW3       29.77S
FARIBAULT      CLOUDY    63  61  94 CALM      29.77S
$$

...ELSEWHERE IN MINNESOTA...


CITY           SKY/WX    TMP DP  RH WIND       PRES   REMARKS
MINNEAPOLIS    PTCLDY    64  58  80 W3        29.75S
INTNL FALLS    CLOUDY    57  44  62 SW3       29.60F
DULUTH         PTCLDY    54  53  97 W8        29.68F
RED WING       CLOUDY    64  63  94 CALM      29.74R FOG
REDWOOD FALLS  CLEAR     62  53  72 W5        29.78F
MANKATO        CLEAR     61  56  83 W3        29.78F
WORTHINGTON    CLEAR     58  52  80 W6        29.83F
FAIRMONT       CLOUDY    61  57  87 NW7       29.80R
$$

...SOUTHWEST WISCONSIN...


CITY           SKY/WX    TMP DP  RH WIND       PRES   REMARKS
LA CROSSE      CLOUDY    69  69 100 CALM      29.71S
PRAIRIE DU CHI RAIN      69  66  90 NW9       29.69R
BOSCOBEL       TSTM      68  66  93 W15G25    29.73R FOG
LONE ROCK      LGT RAIN  67  64  90 N5        29.69S
PLATTEVILLE    CLOUDY    74  74  99 W5        29.66F
FORT MC COY    LGT RAIN  64  64 100 CALM      29.73R
CAMP DOUGLAS   LGT RAIN  66  66 100 CALM      29.71F FOG
MAUSTON-NEW LI LGT RAIN  66  65  99 CALM      29.70F
VIROQUA        CLOUDY    65  65 100 N7        29.73F
WIS DELLS      TSTM      64  62  94 CALM      29.72F
$$

...ELSEWHERE IN WISCONSIN...


CITY           SKY/WX    TMP DP  RH WIND       PRES   REMARKS
MILWAUKEE      CLOUDY    69  66  90 CALM      29.68S
MADISON        CLOUDY    69  65  86 VRB7      29.70R
GREEN BAY      MOCLDY    66  66 100 SW3       29.69F
EAU CLAIRE     PTCLDY    63  63 100 W5        29.72S FOG
BLACK RVR FLS  CLOUDY    66  66 100 CALM      29.72R FOG
MEDFORD        PTCLDY    61  60  97 NW9       29.71F
WAUSAU         CLOUDY    63  62  97 NW3       29.69F
WIS RAPIDS     CLOUDY    66  65  96 CALM      29.71F FOG
MARSHFIELD     CLOUDY    63  61  93 W5        29.71S
RICE LAKE      CLOUDY    63  60  90 W6        29.75S
$$

...NORTHEAST IOWA...


CITY           SKY/WX    TMP DP  RH WIND       PRES   REMARKS
WATERLOO       TSTM      70  68  93 N23       29.67S
DUBUQUE        CLOUDY    74  71  91 S12       29.66F
DECORAH        LGT RAIN  68  66  94 NE6       29.71F
MASON CITY     CLOUDY    67  64  90 N7        29.77
CHARLES CITY   CLOUDY    68  68 100 N10       29.74S
OELWEIN        CLOUDY    70  70 100 N15       29.68S
$$

...ELSEWHERE IN IOWA...


CITY           SKY/WX    TMP DP  RH WIND       PRES   REMARKS
DES MOINES     CLOUDY    71  69  93 NW7       29.70R
IOWA CITY      PTCLDY    75  71  87 SE6       29.68F
FORT DODGE     CLOUDY    68  57  68 N8        29.78S
MARSHALLTOWN   CLOUDY    71  68  90 N21G26    29.69R
CEDAR RAPIDS   CLOUDY    76  73  91 S10       29.64F
$$

...NORTHERN ILLINOIS...


CITY           SKY/WX    TMP DP  RH WIND       PRES   REMARKS
CHICAGO-OHARE  MOCLDY    78  69  73 S18       29.70F
CHICAGO-MIDWAY CLOUDY    77  70  79 S15G26    29.72F
MOLINE         CLOUDY    76  71  85 CALM      29.69F
ROCKFORD       PTCLDY    77  70  79 S8        29.69F
PEORIA         CLOUDY    76  74  93 S7        29.73F
$$

NOTE: "FAIR" INDICATES FEW OR NO CLOUDS BELOW 12,000 FEET WITH NO
SIGNIFICANT WEATHER AND/OR OBSTRUCTIONS TO VISIBILITY. WIND
SPEEDS ARE IN MILES-PER-HOUR.




USA.gov is the U.S. government's official web portal to all federal, state and local government web resources and services.